[[{"header":{"parameterUnit":"m.s-1","parameterCategory":1,"la1":30.2991,"la2":30.254,"lo1":-89.0895,"lo2":-89.0444,"dy":0.0017,"dx":0.0017,"nx":28,"ny":28,"refTime":"2024-05-08T03:00:00:Z","depth":0,"parameterNumber":2,"parameterNumberName":"U-component_of_WINDS"},"data":[0,0,0,0,0,0,0,0,0,0,0,0,0,0,0,0,0,0,0,0,0,0,0,0,0,0,0,0,0,0,0,0,0,0,0,0,0,0,0,0,0,0,0,0,0,0,0,0,0,0,0,0,0,0,0,0,0,0,-1.5318,-1.5319,0,-1.5327,-1.5327,-1.5327,-1.5324,-1.5324,-1.5323,-1.5323,-1.5331,-1.5332,-1.5332,0,0,0,0,0,0,0,0,0,0,0,0,0,-1.5301,-1.5301,-1.5318,-1.5319,-1.5319,-1.5327,-1.5327,-1.5327,-1.5324,-1.5324,-1.5323,-1.5323,-1.5331,-1.5332,-1.5332,0,0,0,0,0,0,0,0,0,0,0,0,0,-1.5309,-1.5301,-1.5318,-1.5318,-1.5318,-1.5327,-1.5327,-1.5327,-1.5324,-1.5323,-1.5323,-1.5323,-1.5331,-1.5332,-1.5332,-1.5341,0,0,-1.5334,-1.5334,0,0,0,0,0,0,0,0,-1.5308,-1.5309,-1.5318,-1.5318,-1.5318,-1.5324,-1.5324,-1.5332,-1.5324,-1.5322,-1.5323,-1.5323,-1.5329,-1.533,-1.5332,-1.5342,-1.5342,-1.5334,-1.5334,-1.5335,-1.5335,0,0,0,0,0,0,0,-1.5308,-1.5309,-1.5322,-1.5318,-1.5318,-1.5318,-1.5319,-1.5325,-1.5327,-1.5322,-1.5322,-1.5323,-1.5329,-1.5331,-1.5332,-1.5342,-1.5334,-1.5335,-1.5335,-1.5335,-1.5361,-1.5362,0,0,0,0,0,0,-1.5307,-1.5309,-1.5321,-1.5322,-1.5312,-1.5318,-1.5319,-1.5322,-1.5327,-1.5327,-1.5323,-1.5322,-1.533,-1.5331,-1.5332,-1.5344,-1.5335,-1.5335,-1.5336,-1.5361,-1.5361,-1.5362,0,0,0,0,0,0,-1.5307,-1.5308,-1.5321,-1.5315,-1.5317,-1.5319,-1.5322,-1.5323,-1.5325,-1.5328,-1.5328,-1.5325,-1.533,-1.5332,-1.5339,-1.5344,-1.5335,-1.5336,-1.5361,-1.5361,-1.5362,-1.5367,0,0,0,0,0,0,-1.5306,-1.5308,-1.5311,-1.5315,-1.5317,-1.5328,-1.5323,-1.5323,-1.5326,-1.5326,-1.5329,-1.533,-1.533,-1.5339,-1.534,-1.5345,-1.5336,-1.536,-1.5361,-1.5361,-1.5366,-1.5368,-1.5369,0,0,0,0,0,-1.5306,-1.5312,-1.5312,-1.5313,-1.5321,-1.5328,-1.5329,-1.5329,-1.5326,-1.533,-1.5332,-1.533,-1.5344,-1.5339,-1.5341,-1.5346,-1.536,-1.5361,-1.5361,-1.5366,-1.5367,-1.5369,0,0,0,0,0,0,-1.5309,-1.5313,-1.5312,-1.532,-1.5324,-1.5327,-1.5332,-1.5331,-1.5335,-1.5335,-1.5335,-1.5336,-1.5344,-1.5346,-1.5341,-1.5356,-1.5351,-1.5352,-1.5354,-1.5356,-1.5357,-1.5356,-1.5337,0,0,0,0,0,-1.531,-1.5315,-1.5319,-1.5326,-1.5328,-1.533,-1.5332,-1.5333,-1.5336,-1.5338,-1.534,-1.5344,-1.5349,-1.5353,-1.5358,-1.5367,-1.5368,-1.5371,-1.5372,-1.5373,-1.5374,-1.538,-1.5381,-1.5364,-1.5364,-1.5364,0,0,-1.5314,-1.5317,-1.532,-1.5326,-1.5329,-1.5335,-1.5331,-1.5337,-1.5341,-1.5339,-1.5346,-1.5348,-1.5353,-1.5362,-1.5366,-1.5363,-1.5379,-1.5374,-1.5375,-1.5375,-1.5381,-1.5382,-1.5384,-1.5365,-1.5365,-1.5365,0,0,-1.5323,-1.5325,-1.5332,-1.5335,-1.5339,-1.5341,-1.5342,-1.5346,-1.5348,-1.5356,-1.5354,-1.536,-1.5368,-1.5372,-1.5375,-1.5386,-1.5385,-1.5388,-1.5394,-1.5399,-1.5401,-1.5402,-1.5406,-1.5408,-1.5389,-1.5389,-1.5389,0,-1.5326,-1.5334,-1.5335,-1.5341,-1.5344,-1.5343,-1.535,-1.5353,-1.5359,-1.5361,-1.5359,-1.5371,-1.5374,-1.5384,-1.5387,-1.5389,-1.5391,-1.5387,-1.5401,-1.5402,-1.5403,-1.5407,-1.5409,-1.5389,-1.5389,-1.5389,-1.5389,0,-1.5339,-1.5344,-1.5349,-1.5355,-1.5359,-1.5365,-1.5367,-1.5371,-1.5372,-1.5373,-1.5382,-1.5385,-1.5391,-1.5394,-1.5394,-1.5404,-1.5403,-1.54,-1.5396,-1.5405,-1.5409,-1.541,-1.539,-1.539,-1.539,-1.539,0,0,-1.5349,-1.5356,-1.5358,-1.5361,-1.5366,-1.5371,-1.5378,-1.5384,-1.5387,-1.5392,-1.5398,-1.5406,-1.5404,-1.5408,-1.5408,-1.5413,-1.5423,-1.541,-1.541,-1.5412,-1.5434,-1.5436,-1.5438,-1.5422,-1.5422,-1.5422,-1.5434,0,-1.5358,-1.537,-1.5371,-1.5382,-1.5387,-1.5387,-1.5393,-1.5397,-1.54,-1.5405,-1.5407,-1.5413,-1.5411,-1.5413,-1.5418,-1.542,-1.5427,-1.542,-1.5427,-1.5428,-1.5426,-1.544,-1.5441,-1.5452,-1.5436,-1.5436,-1.5436,0,-1.5371,-1.5376,-1.5387,-1.5392,-1.5395,-1.54,-1.5406,-1.5411,-1.5417,-1.5418,-1.5422,-1.5422,-1.543,-1.5426,-1.5436,-1.5431,-1.5434,-1.5436,-1.5437,-1.5437,-1.5432,-1.544,-1.5455,-1.5457,-1.5438,-1.5438,-1.5438,0,-1.5377,-1.5387,-1.5395,-1.5398,-1.5404,-1.5408,-1.5411,-1.5416,-1.542,-1.5425,-1.5428,-1.5434,-1.5438,-1.5443,-1.5445,-1.5441,-1.5455,-1.5451,-1.5457,-1.5457,-1.5459,-1.5459,-1.5475,-1.5462,-1.5462,-1.5462,-1.5462,0,-1.5387,-1.5394,-1.5398,-1.5403,-1.5411,-1.5413,-1.5421,-1.5424,-1.5428,-1.5434,-1.5434,-1.544,-1.5442,-1.5448,-1.545,-1.5459,-1.546,-1.5462,-1.5462,-1.5461,-1.5461,-1.5463,-1.5462,-1.5462,-1.5462,-1.5462,-1.5462,0,-1.5396,-1.5399,-1.5407,-1.5413,-1.5415,-1.5421,-1.5426,-1.5431,-1.5433,-1.5441,-1.5443,-1.5447,-1.5454,-1.5456,-1.5465,-1.5466,-1.5476,-1.5476,-1.5474,-1.5475,-1.548,-1.5479,-1.5497,-1.55,-1.5486,-1.5486,-1.5486,0,-1.5402,-1.5407,-1.5414,-1.5418,-1.5421,-1.5427,-1.5432,-1.5434,-1.5438,-1.5445,-1.545,-1.5457,-1.5463,-1.5474,-1.5478,-1.5485,-1.5485,-1.549,-1.5486,-1.5485,-1.5485,-1.5484,-1.5485,-1.5491,-1.5491,-1.5491,-1.5492,0,-1.5413,-1.5414,-1.542,-1.5427,-1.5432,-1.5437,-1.5443,-1.5446,-1.5449,-1.5454,-1.5462,-1.5466,-1.5475,-1.5483,-1.549,-1.5493,-1.5493,-1.5493,-1.5495,-1.5494,-1.5493,-1.5494,-1.5477,-1.5493,-1.5492,-1.5492,-1.5492,-1.5492,-1.5421,-1.5426,-1.5431,-1.5438,-1.5442,-1.5447,-1.5453,-1.5456,-1.5462,-1.547,-1.5471,-1.5479,-1.5485,-1.5495,-1.5499,-1.5505,-1.5503,-1.5506,-1.5506,-1.5507,-1.5507,-1.5492,-1.5506,-1.5506,-1.5506,-1.5506,-1.5506,0,-1.5432,-1.5436,-1.5442,-1.5449,-1.5455,-1.5455,-1.5461,-1.5465,-1.5472,-1.5478,-1.5484,-1.5493,-1.55,-1.5505,-1.5512,-1.5516,-1.5517,-1.5518,-1.5518,-1.5519,-1.5508,-1.5506,-1.5518,-1.5518,-1.5518,-1.5518,-1.5518,-1.5518,-1.5438,-1.5447,-1.5449,-1.546,-1.5464,-1.5472,-1.5475,-1.548,-1.5484,-1.5494,-1.55,-1.5504,-1.5509,-1.5517,-1.5524,-1.5525,-1.5528,-1.5529,-1.553,-1.5521,-1.5519,-1.5518,-1.5516,-1.553,-1.553,-1.554,-1.554,-1.554]},{"header":{"parameterUnit":"m.s-1","parameterCategory":1,"la1":30.2991,"la2":30.254,"lo1":-89.0895,"lo2":-89.0444,"dy":0.0017,"dx":0.0017,"nx":28,"ny":28,"refTime":"2024-05-08T03:00:00:Z","depth":0,"parameterNumber":3,"parameterNumberName":"V-component_of_WINDS"},"data":[0,0,0,0,0,0,0,0,0,0,0,0,0,0,0,0,0,0,0,0,0,0,0,0,0,0,0,0,0,0,0,0,0,0,0,0,0,0,0,0,0,0,0,0,0,0,0,0,0,0,0,0,0,0,0,0,0,0,7.1386,7.1387,0,7.1494,7.1495,7.1496,7.1472,7.147,7.1468,7.1466,7.1568,7.1572,7.1577,0,0,0,0,0,0,0,0,0,0,0,0,0,7.1151,7.1155,7.1386,7.1387,7.1389,7.1494,7.1495,7.1497,7.1473,7.147,7.1468,7.1466,7.1566,7.1572,7.1577,0,0,0,0,0,0,0,0,0,0,0,0,0,7.1255,7.1156,7.1386,7.139,7.1391,7.1493,7.1495,7.1497,7.1473,7.147,7.1467,7.1464,7.1564,7.1571,7.1578,7.168,0,0,7.1599,7.1602,0,0,0,0,0,0,0,0,7.1249,7.1263,7.1388,7.139,7.1391,7.1467,7.1449,7.1558,7.1474,7.1442,7.1466,7.1463,7.1536,7.1545,7.1571,7.1685,7.1689,7.1599,7.1603,7.1606,7.1608,0,0,0,0,0,0,0,7.1242,7.1259,7.1428,7.1389,7.1392,7.1383,7.1395,7.147,7.1504,7.1444,7.1443,7.1456,7.1536,7.1565,7.1574,7.1691,7.1599,7.1605,7.1609,7.1612,7.1893,7.1896,0,0,0,0,0,0,7.1234,7.1253,7.1425,7.1432,7.1312,7.139,7.1403,7.1445,7.1503,7.1509,7.1459,7.1455,7.1555,7.1566,7.1577,7.17,7.1606,7.1613,7.1617,7.189,7.1894,7.1897,0,0,0,0,0,0,7.1229,7.125,7.1421,7.1342,7.1363,7.1397,7.1445,7.1449,7.1478,7.1514,7.1519,7.1483,7.1553,7.1567,7.1655,7.1703,7.1616,7.1622,7.1886,7.1891,7.1896,7.1948,0,0,0,0,0,0,7.1223,7.1248,7.1289,7.1343,7.1368,7.15,7.1448,7.1453,7.1491,7.1487,7.1538,7.1543,7.1552,7.1645,7.1662,7.1711,7.1627,7.1881,7.1888,7.1894,7.1942,7.1954,7.1965,0,0,0,0,0,7.1214,7.1298,7.1292,7.1312,7.142,7.1503,7.1516,7.1526,7.1495,7.1535,7.1559,7.1542,7.1696,7.1654,7.1673,7.1725,7.1878,7.1886,7.1893,7.1937,7.1952,7.1964,0,0,0,0,0,0,7.1245,7.1305,7.1298,7.1403,7.1448,7.1498,7.1549,7.1542,7.1595,7.1588,7.1596,7.1608,7.1697,7.172,7.1673,7.1827,7.1782,7.1794,7.1809,7.1823,7.1834,7.1826,7.1633,0,0,0,0,0,7.1264,7.1329,7.1377,7.1464,7.1488,7.1515,7.1551,7.1556,7.1602,7.162,7.165,7.1692,7.175,7.1788,7.1844,7.1946,7.1956,7.1991,7.2002,7.2011,7.202,7.2075,7.2091,7.1922,7.1922,7.1922,0,0,7.1304,7.1345,7.1384,7.1471,7.1507,7.1571,7.1531,7.16,7.1647,7.1629,7.1715,7.1738,7.1786,7.1882,7.1925,7.1904,7.207,7.2021,7.2028,7.2032,7.2085,7.2101,7.2115,7.1927,7.1926,7.1926,0,0,7.1409,7.1447,7.1524,7.1562,7.1618,7.1636,7.1654,7.1706,7.1722,7.1809,7.1797,7.1851,7.1952,7.1987,7.2017,7.2138,7.2123,7.2155,7.2213,7.2267,7.228,7.2292,7.2334,7.2349,7.2165,7.2165,7.2165,0,7.145,7.1549,7.1563,7.1635,7.1673,7.1663,7.174,7.1774,7.1844,7.1869,7.1845,7.1971,7.2003,7.2106,7.2136,7.2162,7.2181,7.2149,7.2278,7.229,7.2301,7.2341,7.2357,7.2169,7.2168,7.2168,7.2167,0,7.1596,7.1666,7.172,7.1792,7.1836,7.191,7.1932,7.1975,7.1976,7.1996,7.2083,7.2122,7.2185,7.221,7.221,7.2314,7.2298,7.2276,7.2231,7.232,7.2358,7.2373,7.2174,7.2172,7.2171,7.217,0,0,7.1721,7.1802,7.1822,7.1855,7.1917,7.1969,7.2041,7.2107,7.2142,7.2191,7.225,7.2336,7.2317,7.2352,7.2356,7.2403,7.2495,7.2375,7.2376,7.2395,7.261,7.2625,7.2643,7.2487,7.249,7.2492,7.2605,0,7.1831,7.1963,7.1978,7.2094,7.2157,7.2149,7.2212,7.2256,7.2276,7.2331,7.2352,7.2413,7.2383,7.2404,7.2451,7.2474,7.2538,7.2466,7.254,7.2542,7.2527,7.2663,7.2679,7.2783,7.262,7.2623,7.2624,0,7.1976,7.2033,7.2156,7.2211,7.2238,7.2294,7.2355,7.2409,7.2457,7.2468,7.2509,7.2508,7.258,7.2534,7.2632,7.2583,7.2614,7.263,7.2634,7.264,7.2587,7.267,7.2817,7.2832,7.2648,7.2646,7.2644,0,7.2054,7.2161,7.2249,7.2277,7.2342,7.2382,7.2411,7.2457,7.2495,7.2548,7.2572,7.2631,7.2663,7.2708,7.2722,7.2687,7.2819,7.2774,7.2829,7.2828,7.2855,7.2853,7.3008,7.2878,7.2878,7.2877,7.2877,0,7.2174,7.2249,7.2285,7.2338,7.2422,7.2438,7.2519,7.2545,7.2587,7.2643,7.264,7.2692,7.2708,7.2763,7.2774,7.2853,7.2867,7.2877,7.2878,7.2877,7.2875,7.2895,7.2888,7.2882,7.2881,7.288,7.2879,0,7.2273,7.2301,7.2396,7.2452,7.2467,7.2526,7.2572,7.2623,7.2644,7.2715,7.2733,7.2764,7.2829,7.2848,7.2924,7.2932,7.3024,7.302,7.3009,7.3008,7.3061,7.3056,7.3233,7.3257,7.3113,7.3114,7.3115,0,7.2348,7.2406,7.2469,7.2509,7.254,7.2603,7.2643,7.2661,7.2702,7.2763,7.2806,7.2871,7.2923,7.3026,7.3053,7.3112,7.3108,7.3166,7.3116,7.3112,7.3107,7.3103,7.3108,7.3175,7.3176,7.3177,7.3178,0,7.2476,7.2487,7.2547,7.2612,7.2661,7.2712,7.2761,7.2793,7.2817,7.2864,7.2932,7.2973,7.3053,7.3116,7.3176,7.3202,7.3194,7.3195,7.321,7.3207,7.3198,7.3203,7.3033,7.319,7.3189,7.3188,7.3187,7.3187,7.2564,7.2616,7.2669,7.2736,7.2775,7.2822,7.2872,7.2901,7.2959,7.3028,7.3034,7.3107,7.3153,7.3233,7.3263,7.3318,7.3301,7.3323,7.3329,7.3334,7.3338,7.3192,7.3329,7.3329,7.3328,7.3328,7.3328,0,7.2691,7.2726,7.2787,7.2858,7.291,7.2903,7.2957,7.3,7.3065,7.3111,7.3164,7.3241,7.3303,7.3337,7.3398,7.3436,7.3433,7.3451,7.3447,7.3453,7.335,7.333,7.3452,7.3452,7.3452,7.3452,7.3452,7.3452,7.2763,7.285,7.2868,7.2974,7.3007,7.3081,7.3113,7.3154,7.3191,7.3279,7.3332,7.3355,7.3396,7.346,7.3516,7.3524,7.3545,7.3565,7.3571,7.3473,7.3461,7.3448,7.343,7.357,7.357,7.3669,7.367,7.3671]}]]